FW7761 Weather Reports


time (UTC)temp
F
wind
direction
speed
knots
gust
knots
rain 1hr
in
rain 24hr
in
rain mn
in
humidity
%
barometer
mb
20260507123520 52 283 10.4 16.5 0.00 0.00 0.00 77 1013.0
20260507122535 57 272 11.3 20.9 0.00 0.00 0.00 74 1013.0
20260507121528 58 290 1.7 3.5 0.00 0.00 0.00 68 1013.0
20260507120523 59 225 0.9 3.5 0.00 0.00 0.00 68 1013.2
20260507115538 57 193 0.0 0.9 0.00 0.00 0.00 69 1013.3
20260507114552 57 208 1.7 3.5 0.00 0.00 0.00 72 1013.3
20260507113546 57 172 1.7 2.6 0.00 0.00 0.00 69 1013.5
20260507112520 57 117 2.6 6.1 0.00 0.00 0.00 68 1013.6
20260507111535 57 121 4.3 8.7 0.00 0.00 0.00 66 1013.6
20260507110529 57 109 6.1 9.6 0.00 0.00 0.00 66 1013.6
20260507105525 57 128 5.2 9.6 0.00 0.00 0.00 64 1013.7
20260507104517 58 126 5.2 8.7 0.00 0.00 0.00 65 1013.6
20260507103531 58 121 6.1 11.3 0.00 0.00 0.00 64 1013.7
20260507102547 58 115 7.0 12.2 0.00 0.00 0.00 64 1013.7
20260507101540 57 105 7.0 12.2 0.00 0.00 0.00 65 1013.7
20260507100534 56 104 4.3 9.6 0.00 0.00 0.00 67 1013.8
20260507095531 57 109 7.0 13.0 0.00 0.00 0.00 66 1013.8
20260507094523 55 136 5.2 9.6 0.00 0.00 0.00 69 1014.0
20260507093517 54 127 5.2 8.7 0.00 0.00 0.00 72 1014.0
20260507092531 54 119 5.2 9.6 0.00 0.00 0.00 73 1013.7
20260507091546 54 101 5.2 12.2 0.00 0.00 0.00 75 1013.3
20260507090519 53 96 6.1 11.3 0.00 0.00 0.00 76 1013.2
20260507085533 53 97 7.8 13.0 0.00 0.00 0.00 76 1013.1
20260507084528 52 87 7.8 14.8 0.00 0.00 0.00 78 1013.1
20260507083523 51 119 7.8 13.0 0.00 0.00 0.00 81 1013.0
20260507082517 50 122 9.6 14.8 0.00 0.00 0.00 82 1012.6
20260507081551 50 107 9.6 16.5 0.00 0.00 0.00 82 1012.4
20260507080524 51 98 8.7 14.8 0.00 0.00 0.00 78 1012.6
20260507075519 51 93 9.6 14.8 0.00 0.00 0.00 79 1012.9
20260507074554 52 117 7.0 12.2 0.00 0.00 0.00 78 1013.1
20260507073527 53 113 6.1 8.7 0.00 0.00 0.00 75 1013.3
20260507072603 52 109 6.1 11.3 0.00 0.00 0.00 74 1013.3
20260507071535 52 105 4.3 7.8 0.00 0.00 0.00 76 1013.2
20260507070529 52 107 3.5 8.7 0.00 0.00 0.00 77 1013.2
20260507065523 52 111 3.5 6.1 0.00 0.00 0.00 78 1013.3
20260507064517 52 104 2.6 6.1 0.00 0.00 0.00 78 1013.3
20260507063531 51 87 2.6 6.1 0.00 0.00 0.00 80 1013.1
20260507062525 50 67 2.6 3.5 0.00 0.00 0.00 80 1013.1
20260507061603 50 92 1.7 3.5 0.00 0.00 0.00 80 1013.1
20260507060536 50 121 0.9 1.7 0.00 0.00 0.00 82 1013.1
20260507055530 49 100 0.9 1.7 0.00 0.00 0.00 82 1013.0
20260507054524 49 82 1.7 3.5 0.00 0.00 0.00 82 1012.6
20260507053538 49 82 2.6 6.1 0.00 0.00 0.00 82 1012.6
20260507052533 48 82 2.6 5.2 0.00 0.00 0.00 82 1012.5
20260507051526 48 81 3.5 5.2 0.00 0.00 0.00 83 1012.4
20260507050520 48 74 4.3 6.1 0.00 0.00 0.00 83 1012.2
20260507045534 48 70 4.3 7.0 0.00 0.00 0.00 83 1012.2
20260507044551 48 78 3.5 6.1 0.00 0.00 0.00 84 1012.2
20260507043523 48 72 2.6 3.5 0.00 0.00 0.00 84 1012.2
20260507042519 48 62 3.5 7.0 0.00 0.00 0.00 83 1012.3
20260507041532 48 63 3.5 5.2 0.00 0.00 0.00 83 1012.3
20260507040528 49 61 3.5 6.1 0.00 0.00 0.00 81 1012.3
20260507035520 49 72 5.2 7.8 0.00 0.00 0.00 81 1012.4
20260507034535 49 71 6.1 8.7 0.00 0.00 0.00 81 1012.3
20260507033550 49 77 5.2 8.7 0.00 0.00 0.00 81 1012.4
20260507032544 49 74 5.2 7.8 0.00 0.00 0.00 81 1012.4
20260507031537 49 79 4.3 7.0 0.00 0.00 0.00 81 1012.5
20260507030533 49 77 3.5 7.0 0.00 0.00 0.00 81 1012.7
20260507025552 50 89 4.3 7.0 0.00 0.00 0.00 80 1012.6
20260507024523 50 80 4.3 7.8 0.00 0.00 0.00 80 1012.7
20260507023516 50 91 4.3 7.8 0.00 0.00 0.00 80 1012.6
20260507022531 50 84 4.3 8.7 0.00 0.00 0.00 80 1012.5
20260507021527 51 83 4.3 7.8 0.00 0.00 0.00 79 1012.7
20260507020521 51 73 5.2 8.7 0.00 0.00 0.00 79 1012.7
20260507015557 51 80 5.2 7.8 0.00 0.00 0.00 79 1012.7
20260507014531 52 100 4.3 8.7 0.00 0.00 0.00 79 1012.7
20260507013523 52 83 4.3 7.0 0.00 0.00 0.00 78 1012.9
20260507012518 53 99 5.2 8.7 0.00 0.00 0.00 77 1012.9
20260507011531 53 85 5.2 8.7 0.00 0.00 0.00 77 1012.9
20260507010525 53 84 5.2 9.6 0.00 0.00 0.00 77 1012.9
20260507005521 53 85 5.2 7.8 0.00 0.00 0.00 77 1013.0
20260507004535 53 86 6.1 12.2 0.00 0.00 0.00 77 1013.1
20260507003529 53 92 6.1 12.2 0.00 0.00 0.00 77 1013.1
20260507002525 53 91 6.1 11.3 0.00 0.00 0.00 77 1013.0
20260507001517 53 98 6.1 11.3 0.00 0.00 0.00 76 1013.2
20260507000612 53 95 7.8 13.0 0.00 0.00 0.00 76 1013.2
20260506235526 53 81 7.0 13.9 0.00 0.00 0.00 76 1013.2
20260506234541 53 79 5.2 11.3 0.00 0.00 0.00 76 1013.2
20260506233535 53 78 6.1 11.3 0.00 0.00 0.00 77 1013.3
20260506232528 53 85 6.1 12.2 0.00 0.00 0.00 77 1013.3
20260506231545 53 100 7.0 13.0 0.00 0.00 0.00 78 1013.4
20260506230518 53 76 7.8 13.9 0.00 0.00 0.00 79 1013.4
20260506225532 53 89 6.1 12.2 0.00 0.00 0.00 80 1013.4
20260506224547 53 98 7.0 13.9 0.00 0.00 0.00 81 1013.2
20260506223521 53 87 7.0 12.2 0.00 0.00 0.00 81 1013.3
20260506222537 53 97 5.2 11.3 0.00 0.00 0.00 80 1013.4
20260506221529 53 107 4.3 8.7 0.00 0.00 0.00 81 1013.3
20260506220523 52 108 3.5 6.1 0.00 0.00 0.00 81 1013.2
20260506215518 53 97 5.2 9.6 0.00 0.00 0.00 81 1013.2
20260506214532 53 100 4.3 7.8 0.00 0.00 0.00 80 1013.3
20260506213607 53 105 4.3 7.0 0.00 0.00 0.00 81 1013.2
20260506212541 53 108 3.5 7.0 0.00 0.00 0.00 81 1013.1
20260506211516 54 94 3.5 7.0 0.00 0.00 0.00 81 1013.0
20260506210552 54 96 4.3 7.8 0.00 0.00 0.00 81 1012.8
20260506205525 55 111 4.3 8.7 0.00 0.00 0.00 81 1012.5
20260506204520 55 107 4.3 7.0 0.00 0.00 0.00 80 1012.5
20260506203535 56 101 5.2 9.6 0.00 0.00 0.00 78 1012.3
20260506202529 56 108 5.2 8.7 0.00 0.00 0.00 76 1012.2
20260506201543 57 120 5.2 7.8 0.00 0.00 0.00 75 1012.1
20260506200538 57 98 6.1 11.3 0.00 0.00 0.00 74 1011.9
20260506195533 58 113 6.1 12.2 0.00 0.00 0.00 73 1011.7
20260506194546 58 106 7.0 11.3 0.00 0.00 0.00 71 1011.5
20260506193520 58 96 6.1 14.8 0.00 0.00 0.00 70 1011.3
20260506192534 58 117 5.2 9.6 0.00 0.00 0.00 65 1011.3
20260506191531 61 115 2.6 9.6 0.00 0.00 0.00 43 1011.1
20260506190524 64 136 1.7 3.5 0.00 0.00 0.00 38 1011.0
20260506185516 65 144 0.0 0.9 0.00 0.00 0.00 35 1010.9
20260506184531 67 144 0.0 0.9 0.00 0.00 0.00 33 1010.9
20260506183526 67 144 0.0 0.9 0.00 0.00 0.00 32 1010.7
20260506182520 67 135 0.0 1.7 0.00 0.00 0.00 32 1010.7
20260506181535 67 209 0.9 3.5 0.00 0.00 0.00 32 1010.6
20260506180530 68 250 1.7 3.5 0.00 0.00 0.00 32 1010.7
20260506175545 69 275 1.7 2.6 0.00 0.00 0.00 32 1010.7
20260506174517 69 272 0.0 0.9 0.00 0.00 0.00 30 1010.8
20260506173532 68 222 2.6 5.2 0.00 0.00 0.00 32 1010.7
20260506172528 68 104 0.9 1.7 0.00 0.00 0.00 32 1010.8
20260506171521 67 105 0.9 1.7 0.00 0.00 0.00 33 1010.8
20260506170535 68 158 1.7 3.5 0.00 0.00 0.00 32 1010.8
20260506165529 67 212 2.6 3.5 0.00 0.00 0.00 32 1010.9
20260506164523 68 215 1.7 6.1 0.00 0.00 0.00 32 1011.1
20260506163519 67 260 2.6 5.2 0.00 0.00 0.00 33 1011.0
20260506162532 66 282 1.7 5.2 0.00 0.00 0.00 34 1011.0
20260506161527 66 336 0.9 1.7 0.00 0.00 0.00 34 1011.0
20260506160521 67 79 0.9 2.6 0.00 0.00 0.00 34 1010.9
20260506155535 65 35 1.7 1.7 0.00 0.00 0.00 35 1011.1
20260506154531 64 329 1.7 2.6 0.00 0.00 0.00 37 1011.1
20260506153529 64 255 0.9 1.7 0.00 0.00 0.00 39 1011.1
20260506152519 65 208 0.9 1.7 0.00 0.00 0.00 35 1011.0
20260506151534 66 192 1.7 3.5 0.00 0.00 0.00 35 1011.2
20260506150527 66 215 1.7 3.5 0.00 0.00 0.00 35 1011.4
20260506145522 64 243 3.5 5.2 0.00 0.00 0.00 36 1011.5
20260506144536 66 217 3.5 5.2 0.00 0.00 0.00 35 1011.5
20260506143530 67 211 4.3 8.7 0.00 0.00 0.00 35 1011.5
20260506142524 66 173 1.7 3.5 0.00 0.00 0.00 35 1011.7
20260506141518 65 168 1.7 2.6 0.00 0.00 0.00 37 1011.9
20260506140533 64 237 1.7 3.5 0.00 0.00 0.00 37 1011.9
20260506135526 65 279 2.6 6.1 0.00 0.00 0.00 37 1012.0
20260506134521 67 246 3.5 6.1 0.00 0.00 0.00 36 1012.0
20260506133516 65 201 0.9 3.5 0.00 0.00 0.00 35 1012.1
20260506132530 67 171 2.6 5.2 0.00 0.00 0.00 34 1012.2
20260506131525 67 220 3.5 7.8 0.00 0.00 0.00 35 1012.2
20260506130518 65 176 3.5 7.8 0.00 0.00 0.00 36 1012.2
20260506125533 68 118 2.6 6.1 0.00 0.00 0.00 34 1012.3
20260506124527 67 181 3.5 7.0 0.00 0.00 0.00 35 1012.3